Flag for U.S.A. Weather past 2 weeks in Denver, Colorado, U.S.A.

Now
56 °F

Thundershowers. Broken clouds.


Feels Like: 53 °F
Forecast: 46 / 62 °F
Wind: 13 mph from Northeast

Location: Buckley Air Force Base

Current Time: May 22, 2015 at 6:36:46 PM

Latest Report: May 22, 2015 at 5:58 PM


Visibility: 10 mi

Pressure: 29.89 "Hg

Humidity: 71%

Dew point: 47 °F

Location of DenverLocation

Historic Weather in Denver — Graph

°F

Denver temperature yesterday

Maximum temperature yesterday: 53 °F (at 1:58 PM)
Minimum temperature yesterday: 39 °F (at 1:58 AM)
Average temperature yesterday: 46 °F

Past Weeks' High & Low Weather Summary

 TemperatureHumidityPressure
High72 °F (May 14, 2:58 PM)100% (May 7, 10:58 PM)30.31 "Hg (May 7, 10:58 PM)
Low26 °F (May 10, 1:58 AM)22% (May 14, 1:58 PM)29.54 "Hg (May 15, 3:58 PM)
Average48 °F78%29.94 "Hg
* Reported May 7 4:58 PM — May 22 4:58 PM, Denver, Weather by CustomWeather, © 2015

Note: Actual official high and low records may vary slightly from our data, if they occured in-between our weather recording intervals... More about our weather records

Advertising

Denver weather history for previous 24 hours

 ConditionsComfort  
Time TempWeatherWind HumidityBarometerVisibility
4:58 PM
Fri, May 22
56 °FThundershowers. Partly sunny.12 mph68%29.88 "Hg10 mi
3:58 PM59 °FPartly sunny.8 mph63%29.86 "Hg10 mi
2:58 PM56 °FPartly sunny.9 mph67%29.88 "Hg10 mi
1:58 PM56 °FPartly sunny.8 mph67%29.87 "Hg10 mi
12:58 PM55 °FPartly sunny.6 mph68%29.89 "Hg10 mi
11:58 AM51 °FPartly sunny.8 mph83%29.91 "Hg10 mi
10:58 AM50 °FCloudy.8 mph92%29.90 "Hg10 mi
9:58 AM49 °FLight rain. Mostly cloudy.6 mph95%29.89 "Hg10 mi
8:58 AM48 °FLight rain. Overcast.6 mph96%29.91 "Hg10 mi
7:58 AM47 °FLight rain. Mostly cloudy.7 mph94%29.91 "Hg10 mi
6:58 AM46 °FLight rain. More clouds than sun.2 mph100%29.91 "Hg10 mi
5:58 AM45 °FLight rain. Mostly cloudy.6 mph100%29.91 "Hg7 mi
4:58 AM45 °FLight rain. Overcast.7 mph99%29.91 "Hg10 mi
3:58 AM45 °FMostly cloudy.8 mph100%29.92 "Hg10 mi
2:58 AM46 °FOvercast.8 mph99%29.93 "Hg10 mi
1:58 AM46 °FMostly cloudy.8 mph97%29.96 "Hg10 mi
12:58 AM47 °FLight rain. Overcast.12 mph98%29.99 "Hg10 mi
11:58 PM
Thu, May 21
48 °FMostly cloudy.14 mph88%30.00 "Hg10 mi
10:58 PM48 °FOvercast.14 mph91%30.00 "Hg10 mi
9:58 PM49 °FOvercast.3 mph86%30.02 "Hg10 mi
8:58 PM49 °FOvercast.2 mph87%30.04 "Hg10 mi
7:58 PM49 °FMore clouds than sun.3 mph81%30.04 "Hg10 mi
6:58 PM50 °FMostly cloudy.5 mph76%30.03 "Hg10 mi
Weather by CustomWeather, © 2015

See weather overviewHow to use our weather pages